Change the Weather History Date:

Thursday, October 27, 2011

  Actual Average Record
Temperature  
Mean Temperature 50 °F 57 °F  
Max Temperature 58 °F 68 °F 85 °F (1977)
Min Temperature 41 °F 45 °F 24 °F (1957)
Degree Days  
Heating Degree Days 15 9  
Month to date heating degree days 143 170  
Since 1 July heating degree days 206 212  
Cooling Degree Days 0 1  
Month to date cooling degree days 56 45  
Year to date cooling degree days 2189 1687  
Growing Degree Days 2 (Base 50)    
Moisture  
Dew Point 36 °F    
Average Humidity 63    
Maximum Humidity 86    
Minimum Humidity 40    
Precipitation  
Precipitation 0.00 in 0.13 in 2.57 in (1996)
Month to date precipitation 0.67 3.52  
Year to date precipitation 30.52 39.44  
Snow  
Snow 0.00 in - - ()
Month to date snowfall 0.0  
Snow Depth 0.00 in    
Sea Level Pressure  
Sea Level Pressure 30.10 in    
Wind  
Wind Speed 8 mph (NNE)    
Max Wind Speed 16 mph    
Max Gust Speed 20 mph    
Visibility 10 miles    
Events      
T = Trace of Precipitation, MM = Missing Value Source: NWS Daily Summary

Daily Weather History Graph

Daily Weather History Graph

Search for Another Location

Airport or City:

Trip Planner

Search our weather history database for the weather conditions in past years. The results will help you decide how hot, cold, wet, or windy it might be!

Date:

Astronomy

Oct. 27, 2011 Rise Set
Actual Time 7:37 AM CDT 6:26 PM CDT
Civil Twilight 7:10 AM CDT 6:52 PM CDT
Nautical Twilight 6:39 AM CDT 7:23 PM CDT
Astronomical Twilight 6:09 AM CDT 7:53 PM CDT
Moon 8:38 AM CDT (10/27) 6:59 PM CDT (10/27)
Length of Visible Light 11h 42m
Length of Day
10h 49m
New Moon, 1% of the Moon is Illuminated
Oct 27
New Moon
Nov 2
First Quarter
Nov 10
Full
Nov 18
Last Quarter
Nov 25
New

Hourly Weather History & Observations

Time (CDT) Temp. Dew Point Humidity Pressure Visibility Wind Dir Wind Speed Gust Speed Precip Events Conditions
12:53 AM 48.0 °F 45.0 °F 89% 30.04 in 10.0 mi Calm Calm - N/A   Overcast
1:53 AM 48.9 °F 43.0 °F 80% 30.04 in 10.0 mi North 9.2 mph - N/A   Overcast
2:53 AM 48.2 °F 39.2 °F 71% 30.06 in 10.0 mi North 10.4 mph - N/A   Overcast
3:53 AM 48.0 °F 39.0 °F 71% 30.05 in 10.0 mi North 10.4 mph - N/A   Overcast
4:53 AM 48.9 °F 37.9 °F 66% 30.07 in 10.0 mi NNE 10.4 mph - N/A   Overcast
5:53 AM 48.0 °F 37.9 °F 68% 30.06 in 10.0 mi NNE 9.2 mph - N/A   Overcast
6:53 AM 48.0 °F 37.9 °F 68% 30.09 in 10.0 mi North 4.6 mph - N/A   Overcast
7:53 AM 48.0 °F 39.0 °F 71% 30.10 in 10.0 mi NNE 6.9 mph - N/A   Overcast
8:53 AM 48.0 °F 39.0 °F 71% 30.12 in 10.0 mi NNE 4.6 mph - N/A   Overcast
9:53 AM 48.9 °F 39.0 °F 69% 30.13 in 10.0 mi NE 8.1 mph - N/A   Overcast
10:53 AM 50.0 °F 39.0 °F 66% 30.14 in 10.0 mi NE 8.1 mph - N/A   Scattered Clouds
11:53 AM 53.1 °F 37.0 °F 55% 30.12 in 10.0 mi NNE 10.4 mph - N/A   Clear
12:53 PM 54.0 °F 36.0 °F 51% 30.11 in 10.0 mi NE 10.4 mph - N/A   Partly Cloudy
1:53 PM 55.0 °F 36.0 °F 49% 30.09 in 10.0 mi North 4.6 mph - N/A   Scattered Clouds
2:53 PM 55.9 °F 34.0 °F 44% 30.07 in 10.0 mi NNE 10.4 mph - N/A   Scattered Clouds
3:53 PM 57.0 °F 33.1 °F 40% 30.06 in 10.0 mi NNE 12.7 mph - N/A   Scattered Clouds
4:53 PM 55.0 °F 33.1 °F 43% 30.08 in 10.0 mi NNE 11.5 mph - N/A   Mostly Cloudy
5:53 PM 53.1 °F 33.1 °F 47% 30.09 in 10.0 mi NNE 10.4 mph - N/A   Partly Cloudy
6:53 PM 52.0 °F 33.1 °F 49% 30.13 in 10.0 mi NNE 3.5 mph - N/A   Clear
7:53 PM 51.1 °F 34.0 °F 52% 30.15 in 10.0 mi North 5.8 mph - N/A   Mostly Cloudy
8:53 PM 51.1 °F 33.1 °F 50% 30.14 in 10.0 mi NNE 6.9 mph - N/A   Overcast
9:53 PM 50.0 °F 32.0 °F 50% 30.16 in 10.0 mi NNE 4.6 mph - N/A   Mostly Cloudy
10:53 PM 48.9 °F 32.0 °F 52% 30.16 in 10.0 mi NNE 3.5 mph - N/A   Partly Cloudy
11:53 PM 48.0 °F 33.1 °F 56% 30.16 in 10.0 mi Calm Calm - N/A   Mostly Cloudy